Weather History for Riviere-du-Loup, QC

Change the Weather History Date:

Thursday, November 29, 2012

  Actual Average Record
Temperature  
Mean Temperature 13 °F -  
Max Temperature 18 °F - - ()
Min Temperature 7 °F - - ()
Degree Days  
Heating Degree Days 52    
Moisture  
Dew Point 16 °F    
Average Humidity 65    
Maximum Humidity 92    
Minimum Humidity 43    
Precipitation  
Precipitation 0.13 in - - ()
Sea Level Pressure  
Sea Level Pressure 30.04 in    
Wind  
Wind Speed 8 mph ()    
Max Wind Speed 15 mph    
Max Gust Speed 28 mph    
T = Trace of Precipitation, MM = Missing Value Source: Averaged Metar Reports

Daily Weather History Graph

Daily Weather History Graph

Search for Another Location

Airport:

Trip Planner

Search our weather history database for the weather conditions in past years. The results will help you decide how hot, cold, wet, or windy it might be!

Date:

Astronomy

Nov. 29, 2012 Rise Set
Actual Time 7:04 AM EST 3:48 PM EST
Civil Twilight 6:29 AM EST 4:24 PM EST
Nautical Twilight 5:50 AM EST 5:02 PM EST
Astronomical Twilight 5:13 AM EST 5:39 PM EST
Moon 4:48 PM EST (11/29) 7:49 AM EST (11/29)
Length of Visible Light 9h 54m
Length of Day
8h 44m
Full, 99% of the Moon is Illuminated
Nov 29
Full
Dec 6
Last Quarter
Dec 13
New
Dec 20
First Quarter
Dec 28
Full

Hourly Weather History & Observations

Time (EST) Temp. Windchill Dew Point Humidity Pressure Visibility Wind Dir Wind Speed Gust Speed Precip Events Conditions
12:00 AM 35.8 °F 28.3 °F 25.9 °F 67% 29.89 in - NW 10.4 mph 20.7 mph N/A   Unknown
1:00 AM 24 °F - 22 °F 89% 29.94 in - SSE 5.8 mph - -  
1:00 AM 46.6 °F - 26.2 °F 45% 29.88 in - SSW 12.7 mph 21.9 mph N/A   Unknown
2:00 AM 31.6 °F 23.7 °F 19.4 °F 61% 29.96 in - NW 9.2 mph 19.6 mph N/A   Unknown
3:00 AM 48.4 °F - 30.4 °F 50% 29.84 in - SSW 11.5 mph 23.0 mph N/A   Unknown
4:00 AM 19 °F - 10 °F 55% 29.99 in - NNW 10.4 mph - -  
4:00 AM 19.0 °F 7.5 °F 9.7 °F 67% 29.99 in - NNW 10.4 mph 17.3 mph N/A   Unknown
5:00 AM 60.4 °F - 48.0 °F 64% 29.88 in - SSW 10.4 mph 18.4 mph N/A   Unknown
6:00 AM 48.7 °F - 45.5 °F 89% 29.97 in - SW 8.1 mph - 0.03 in   Unknown
7:00 AM 15 °F - 5 °F 51% 30.06 in - WNW 3.5 mph - -  
7:00 AM 47.3 °F - 44.4 °F 90% 29.99 in - SSW 10.4 mph 20.7 mph N/A   Unknown
8:00 AM 45.3 °F 39.3 °F 42.4 °F 90% 30.02 in - SSW 12.7 mph 26.5 mph 0.04 in   Unknown
9:00 AM 43.9 °F 36.8 °F 41.4 °F 91% 30.01 in - SSW 15.0 mph 23.0 mph 0.03 in   Unknown
10:00 AM 17 °F - 5 °F 45% 30.07 in - West 4.6 mph - -  
10:00 AM 41.9 °F 34.3 °F 38.7 °F 88% 30.03 in - SSW 15.0 mph 27.6 mph 0.03 in   Unknown
11:00 AM 41.9 °F 34.6 °F 38.1 °F 86% 30.05 in - SW 13.8 mph 27.6 mph N/A   Unknown
12:00 PM 31.8 °F 21.4 °F 29.8 °F 92% 30.10 in - NNE 15.0 mph 24.2 mph N/A   Unknown
1:00 PM 16 °F - 6 °F 51% 30.03 in - NNE 5.8 mph - -  
1:00 PM 16.2 °F 7.6 °F 5.9 °F 64% 30.03 in - NNE 5.8 mph - N/A   Unknown
2:00 PM 15.8 °F 7.2 °F 5.4 °F 63% 30.02 in - North 5.8 mph - N/A   Unknown
3:00 PM 16.3 °F 10.8 °F 5.5 °F 63% 30.03 in - NNW 3.5 mph - N/A   Unknown
4:00 PM 16 °F - 4 °F 45% 30.05 in - NNW 9.2 mph - -  
4:00 PM 15.6 °F 4.0 °F 4.1 °F 60% 30.05 in - NNW 9.2 mph - N/A   Unknown
5:00 PM 14.4 °F 0.9 °F 3.0 °F 61% 30.07 in - NNW 11.5 mph 19.6 mph N/A   Unknown
6:00 PM 12.2 °F 1.7 °F 0.1 °F 59% 30.12 in - NW 6.9 mph - N/A   Unknown
7:00 PM 11 °F - -0 °F 47% 30.14 in - NW 6.9 mph - -  
7:00 PM 11.1 °F 0.4 °F -0.0 °F 61% 30.14 in - NW 6.9 mph - N/A   Unknown
8:00 PM 10.8 °F -1.1 °F -0.2 °F 61% 30.16 in - NW 8.1 mph - N/A   Unknown
9:00 PM 9.9 °F -1.1 °F -1.3 °F 61% 30.18 in - NW 6.9 mph 19.6 mph N/A   Unknown
10:00 PM 9 °F - -3 °F 43% 30.20 in - WNW 8.1 mph - -  
10:00 PM 8.6 °F -3.7 °F -2.9 °F 60% 30.20 in - WNW 8.1 mph 17.3 mph N/A   Unknown
11:00 PM 7.5 °F -2.6 °F -3.3 °F 61% 30.23 in - WNW 5.8 mph - N/A   Unknown